Regional Weather Roundup
Issued by NWS Sioux Falls, SD

Home | Current Version | Previous Version | Text Only | Print | Product List | Glossary On
Versions: 1 2 3 4 5 6 7 8 9 10 11 12 13 14 15 16 17 18 19 20 21 22 23 24 25 26 27 28 29 30 31 32 33 34 35 36 37 38 39 40 41 42 43 44 45 46 47 48 49 50
000
ASUS43 KFSD 260710
RWRFSD

WEATHER ROUNDUP FOR SE SOUTH DAKOTA/SW MINNESOTA/NW IOWA
NATIONAL WEATHER SERVICE SIOUX FALLS SD
100 AM CST MON JAN 26 2015

NOTE: "FAIR" INDICATES FEW OR NO CLOUDS BELOW 12,000 FEET WITH NO
SIGNIFICANT WEATHER AND OR OBSTRUCTIONS TO VISIBILITY.


SDZ038>040-050-052>070-260800-
SOUTHEAST SOUTH DAKOTA

CITY           SKY/WX    TMP DP  RH WIND       PRES   REMARKS
CHAMBERLAIN    CLOUDY    33  29  85 W6        29.87F WCI  27
HURON          CLEAR     32  30  92 S13       29.84F WCI  22
MADISON        PTSUNNY   32  32 100 SW14      29.86F WCI  22
MITCHELL       PTCLDY    34  31  88 S10       29.88F WCI  26
SIOUX FALLS    MOCLDY    32  30  92 SW8       29.91F WCI  25
WINNER         FAIR      42  31  64 SW8       29.90S
YANKTON        CLOUDY    30  28  93 CALM      29.95F
$$

MNZ071-072-080-081-089-090-097-098-260800-
SOUTHWEST MINNESOTA

CITY           SKY/WX    TMP DP  RH WIND       PRES   REMARKS
FAIRMONT       CLOUDY    30  25  80 S12       29.94F WCI  21
JACKSON        CLOUDY    32  30  93 S9        29.93F WCI  24
LUVERNE        MOCLDY    32  30  93 SW10      29.91F WCI  24
MARSHALL       MOCLDY    30  27  86 W6        29.87F WCI  24
MONTEVIDEO     MOCLDY    32  32 100 S6        29.88R WCI  26
PIPESTONE      MOCLDY    30  30 100 SW13      29.87F FOG     WCI  20
REDWOOD FALLS  CLOUDY    31  28  89 S12       29.88F WCI  22
TRACY          MOCLDY    32  30  93 SW13      29.86F WCI  23
WINDOM         CLOUDY    32  30  93 S9        29.90F WCI  24
WORTHINGTON    CLOUDY    30  28  93 SW9       29.92F WCI  22
$$

IAZ001>003-012>014-020>022-031-032-NEZ013-014-SDZ071-260800-
NORTHWEST IOWA

CITY           SKY/WX    TMP DP  RH WIND       PRES   REMARKS
CHEROKEE       PTCLDY    31  31 100 S6        29.97F WCI  25
DENISON        CLOUDY    32  32 100 SW8       29.97F WCI  25
ESTHERVILLE    CLOUDY    30  28  92 S10       29.94F WCI  21
LE MARS        PTCLDY    32  32 100 S7        29.97F WCI  26
ORANGE CITY    MOCLDY    32  30  93 SW9       29.95S WCI  24
SHELDON        PTCLDY    32  32 100 S9        29.94S WCI  24
SIOUX CITY     CLEAR     31  28  89 S7        29.98F WCI  24
SPENCER        MOCLDY    32  29  88 S8        29.95S WCI  25
STORM LAKE     MOCLDY    30  30 100 SW10      29.97F WCI  21
$$

ABBREVIATIONS USED IN REMARKS
   TC - TEMPERATURE IN CELSIUS
  WCI - WIND CHILL INDEX
   HX - HEAT INDEX
  VSB - VISIBILITY




USA.gov is the U.S. government's official web portal to all federal, state and local government web resources and services.